OE3PDB-4 Weather Reports


time (UTC)temp
F
wind
direction
speed
knots
gust
knots
rain 1hr
in
rain 24hr
in
rain mn
in
humidity
%
barometer
mb
20260505222000 60 180 0.0 0.0 0.00 0.00 0.00 57 1006.9
20260505221000 61 180 0.0 0.0 0.00 0.00 0.00 56 1006.7
20260505220000 61 180 0.0 0.0 0.00 0.00 0.00 55 1006.7
20260505215000 61 180 0.0 0.0 0.00 0.00 0.00 55 1006.6
20260505214000 62 180 0.0 0.0 0.00 0.00 0.00 54 1006.6
20260505213000 62 180 0.0 0.0 0.00 0.00 0.00 54 1006.5
20260505212000 63 180 0.0 0.0 0.00 0.00 0.00 54 1006.3
20260505211000 63 180 0.0 0.0 0.00 0.00 0.00 53 1006.2
20260505210000 64 180 0.0 0.0 0.00 0.00 0.00 52 1006.2
20260505205000 64 180 0.0 0.0 0.00 0.00 0.00 51 1006.4
20260505204000 65 157 0.0 0.0 0.00 0.00 0.00 50 1006.2
20260505203000 66 157 0.0 0.0 0.00 0.00 0.00 49 1005.9
20260505202000 66 157 0.0 0.0 0.00 0.00 0.00 49 1005.7
20260505201000 67 157 0.0 0.0 0.00 0.00 0.00 48 1005.7
20260505200000 67 157 0.0 0.0 0.00 0.00 0.00 48 1005.5
20260505195000 67 157 0.0 0.0 0.00 0.00 0.00 47 1005.5
20260505194000 67 157 0.0 0.0 0.00 0.00 0.00 47 1005.5
20260505193000 68 157 0.0 0.0 0.00 0.00 0.00 46 1005.5
20260505192000 68 157 0.0 0.0 0.00 0.00 0.00 46 1005.4
20260505191000 68 157 0.0 0.0 0.00 0.00 0.00 45 1005.4
20260505190000 69 180 0.0 0.0 0.00 0.00 0.00 44 1005.4
20260505185000 69 180 0.0 0.0 0.00 0.00 0.00 44 1005.4
20260505184000 69 180 0.0 0.0 0.00 0.00 0.00 43 1005.3
20260505183000 70 157 1.7 1.7 0.00 0.00 0.00 42 1005.2
20260505182000 70 157 0.0 0.0 0.00 0.00 0.00 42 1005.2
20260505181000 70 157 0.0 0.0 0.00 0.00 0.00 41 1005.2
20260505180000 71 157 1.7 1.7 0.00 0.00 0.00 40 1005.1
20260505175000 72 180 1.7 1.7 0.00 0.00 0.00 40 1005.2
20260505174000 72 270 0.0 0.0 0.00 0.00 0.00 40 1005.1
20260505173000 73 202 0.0 0.0 0.00 0.00 0.00 39 1005.0
20260505172000 73 180 0.0 0.0 0.00 0.00 0.00 39 1005.1
20260505171000 74 315 0.0 0.0 0.00 0.00 0.00 38 1005.1
20260505170000 74 157 0.0 0.0 0.00 0.00 0.00 38 1005.3
20260505165000 75 157 0.0 0.0 0.00 0.00 0.00 38 1005.4
20260505164000 75 157 0.0 0.0 0.00 0.00 0.00 37 1005.4
20260505163000 75 180 0.0 3.5 0.00 0.00 0.00 36 1005.4
20260505162000 76 180 1.7 1.7 0.00 0.00 0.00 36 1005.4
20260505161000 77 202 1.7 1.7 0.00 0.00 0.00 35 1005.4
20260505153000 79 180 0.0 1.7 0.00 0.00 0.00 32 1005.4
20260505152000 80 157 3.5 3.5 0.00 0.00 0.00 31 1005.5
20260505151000 81 157 0.0 0.0 0.00 0.00 0.00 29 1005.5
20260505125000 84 315 2.6 2.6 0.00 0.00 0.00 26 1006.4
20260505124000 84 247 0.0 2.6 0.00 0.00 0.00 26 1006.6
20260505123000 83 247 0.0 0.0 0.00 0.00 0.00 26 1006.7
20260505122001 83 180 0.9 5.2 0.00 0.00 0.00 27 1006.9
20260505121001 82 315 0.0 0.0 0.00 0.00 0.00 28 1006.9
20260505120001 82 157 0.9 0.9 0.00 0.00 0.00 28 1007.0
20260505115001 82 180 2.6 2.6 0.00 0.00 0.00 30 1007.2
20260505114001 82 180 0.0 0.9 0.00 0.00 0.00 32 1007.2
20260505113001 81 157 3.5 3.5 0.00 0.00 0.00 34 1007.3
20260505112001 80 180 0.9 0.9 0.00 0.00 0.00 36 1007.4
20260505111001 79 270 0.0 0.0 0.00 0.00 0.00 39 1007.7
20260505102001 75 180 0.0 0.0 0.00 0.00 0.00 41 1008.7
20260505101001 75 180 0.9 0.9 0.00 0.00 0.00 42 1008.8
20260505100001 74 292 0.9 0.9 0.00 0.00 0.00 43 1009.1
20260505095001 73 180 1.7 1.7 0.00 0.00 0.00 43 1009.2
20260505094001 72 180 0.0 0.0 0.00 0.00 0.00 44 1009.2
20260505093001 72 180 0.0 0.0 0.00 0.00 0.00 44 1009.3
20260505092001 72 157 0.0 0.0 0.00 0.00 0.00 44 1009.5
20260505091001 71 90 0.0 0.0 0.00 0.00 0.00 45 1009.6
20260505090001 71 180 0.0 0.9 0.00 0.00 0.00 46 1009.7
20260505085001 70 157 2.6 2.6 0.00 0.00 0.00 46 1009.7
20260505084001 70 157 0.0 1.7 0.00 0.00 0.00 46 1009.8
20260505083001 69 157 0.0 1.7 0.00 0.00 0.00 48 1009.5
20260505082001 68 157 0.0 0.9 0.00 0.00 0.00 48 1009.6
20260505081001 68 180 0.0 0.0 0.00 0.00 0.00 49 1009.8
20260505080001 67 202 0.0 0.0 0.00 0.00 0.00 50 1009.8
20260505075001 67 180 0.0 0.0 0.00 0.00 0.00 51 1009.8
20260505074001 66 180 1.7 1.7 0.00 0.00 0.00 53 1009.9
20260505073001 65 180 0.0 0.0 0.00 0.00 0.00 53 1009.9
20260505072001 64 180 0.0 1.7 0.00 0.00 0.00 56 1010.0
20260505071001 63 180 0.0 0.0 0.00 0.00 0.00 58 1010.0
20260505070001 62 225 0.0 0.0 0.00 0.00 0.00 60 1010.3
20260505065001 61 225 0.0 0.0 0.00 0.00 0.00 61 1010.2
20260505064001 60 225 0.0 0.0 0.00 0.00 0.00 61 1010.2
20260505063001 60 225 0.0 0.0 0.00 0.00 0.00 61 1010.1
20260505062001 60 225 0.0 0.0 0.00 0.00 0.00 62 1010.1
20260505061001 59 225 0.0 0.0 0.00 0.00 0.00 63 1010.0
20260505060001 59 225 0.0 0.0 0.00 0.00 0.00 63 1010.0
20260505055001 59 225 0.0 0.0 0.00 0.00 0.00 63 1009.9
20260505054001 58 225 0.0 0.0 0.00 0.00 0.00 63 1009.9
20260505053001 58 225 0.0 0.0 0.00 0.00 0.00 64 1009.9
20260505052001 56 225 0.0 0.0 0.00 0.00 0.00 65 1010.0
20260505051001 56 225 0.0 0.0 0.00 0.00 0.00 65 1010.0
20260505041001 54 225 0.0 0.0 0.00 0.00 0.00 65 1010.0
20260505040001 54 225 0.0 0.0 0.00 0.00 0.00 65 1009.9
20260505035001 54 225 0.0 0.0 0.00 0.00 0.00 64 1009.9
20260505034001 54 225 0.0 0.0 0.00 0.00 0.00 64 1009.9
20260505033001 55 225 0.0 0.0 0.00 0.00 0.00 64 1010.0
20260505032001 55 225 0.0 0.0 0.00 0.00 0.00 64 1010.0
20260505031001 55 225 0.0 0.0 0.00 0.00 0.00 63 1010.0
20260505030001 55 225 0.0 0.0 0.00 0.00 0.00 63 1010.2
20260505025001 55 225 0.0 0.0 0.00 0.00 0.00 63 1010.2
20260505024001 55 225 0.0 0.0 0.00 0.00 0.00 63 1010.1
20260505023001 55 225 0.0 0.0 0.00 0.00 0.00 63 1010.0
20260505022001 55 225 0.0 0.0 0.00 0.00 0.00 63 1010.2
20260505021001 55 225 0.0 0.0 0.00 0.00 0.00 63 1010.2
20260505020001 55 225 0.0 0.0 0.00 0.00 0.00 62 1010.4
20260505015001 55 225 0.0 0.0 0.00 0.00 0.00 62 1010.5
20260505014001 56 225 0.0 0.0 0.00 0.00 0.00 61 1010.4
20260505013002 56 225 0.0 0.0 0.00 0.00 0.00 61 1010.4
20260505012001 56 225 0.0 0.0 0.00 0.00 0.00 61 1010.4
20260505011001 56 225 0.0 0.0 0.00 0.00 0.00 60 1010.4
20260505010001 57 225 0.0 0.0 0.00 0.00 0.00 59 1010.5
20260505005002 57 225 0.0 0.0 0.00 0.00 0.00 59 1010.6
20260505004002 57 225 0.0 0.0 0.00 0.00 0.00 59 1010.5
20260505003002 57 225 0.0 0.0 0.00 0.00 0.00 58 1010.6
20260505002002 58 225 0.0 0.0 0.00 0.00 0.00 58 1010.6
20260505001002 58 225 0.0 0.0 0.00 0.00 0.00 57 1010.7
20260505000002 58 225 0.0 0.0 0.00 0.00 0.00 57 1010.6
20260504235002 58 225 0.0 0.0 0.00 0.00 0.00 57 1010.8
20260504234002 59 225 0.0 0.0 0.00 0.00 0.00 56 1010.9
20260504233002 59 225 0.0 0.0 0.00 0.00 0.00 55 1010.9
20260504232002 60 225 0.0 0.0 0.00 0.00 0.00 55 1010.9
20260504231002 60 225 0.0 0.0 0.00 0.00 0.00 54 1010.9
20260504230002 60 225 0.0 0.0 0.00 0.00 0.00 53 1010.9
20260504225002 61 225 0.0 0.0 0.00 0.00 0.00 52 1011.0
20260504224002 61 225 0.0 0.0 0.00 0.00 0.00 51 1011.0
20260504223002 61 225 0.0 0.0 0.00 0.00 0.00 51 1011.0